Time,TemperatureF,DewpointF,PressureIn,WindDirection,WindDirectionDegrees,WindSpeedMPH,WindSpeedGustMPH,Humidity,HourlyPrecipIn,Conditions,Clouds,dailyrainin,SolarRadiationWatts/m^2,SoftwareType,DateUTC
2013-03-06 00:03:00,39.1,25.6,29.94,North,360,0.0,1.0,58,0.00,,,0.00,0,Wunderground v.1.15,2013-03-06 05:03:00,
2013-03-06 00:07:00,39.1,26.0,29.94,North,360,0.0,1.0,59,0.00,,,0.00,0,Wunderground v.1.15,2013-03-06 05:07:00,
2013-03-06 00:09:00,39.1,26.0,29.94,North,360,0.0,1.0,59,0.00,,,0.00,0,Wunderground v.1.15,2013-03-06 05:09:00,
2013-03-06 00:16:00,39.1,26.0,29.94,North,360,0.0,0.0,59,0.00,,,0.00,0,Wunderground v.1.15,2013-03-06 05:16:00,
2013-03-06 00:23:00,39.1,26.0,29.94,North,360,1.0,1.0,59,0.00,,,0.00,0,Wunderground v.1.15,2013-03-06 05:23:00,
2013-03-06 00:29:00,39.1,26.0,29.94,North,360,1.0,3.0,59,0.00,,,0.00,0,Wunderground v.1.15,2013-03-06 05:29:00,
2013-03-06 00:37:00,39.2,26.1,29.94,North,360,1.0,1.0,59,0.00,,,0.00,0,Wunderground v.1.15,2013-03-06 05:37:00,
2013-03-06 00:43:00,39.2,26.1,29.94,North,360,0.0,0.0,59,0.00,,,0.00,0,Wunderground v.1.15,2013-03-06 05:43:00,
2013-03-06 00:49:00,39.2,26.1,29.93,North,360,0.0,0.0,59,0.00,,,0.00,0,Wunderground v.1.15,2013-03-06 05:49:00,
2013-03-06 00:56:00,39.1,26.4,29.93,North,360,1.0,2.0,60,0.00,,,0.00,0,Wunderground v.1.15,2013-03-06 05:56:00,
2013-03-06 01:01:00,39.1,26.4,29.93,North,360,1.0,2.0,60,0.00,,,0.00,0,Wunderground v.1.15,2013-03-06 06:01:00,
2013-03-06 01:07:00,39.1,26.4,29.93,North,360,1.0,2.0,60,0.00,,,0.00,0,Wunderground v.1.15,2013-03-06 06:07:00,
2013-03-06 01:13:00,38.9,26.6,29.93,North,360,1.0,1.0,61,0.00,,,0.00,0,Wunderground v.1.15,2013-03-06 06:13:00,
2013-03-06 01:19:00,38.9,27.0,29.93,North,360,1.0,2.0,62,0.00,,,0.00,0,Wunderground v.1.15,2013-03-06 06:19:00,
2013-03-06 01:26:00,39.1,27.2,29.93,North,360,1.0,3.0,62,0.00,,,0.00,0,Wunderground v.1.15,2013-03-06 06:26:00,
2013-03-06 01:33:00,39.1,27.2,29.93,North,360,2.0,2.0,62,0.00,,,0.00,0,Wunderground v.1.15,2013-03-06 06:33:00,
2013-03-06 01:39:00,39.2,27.3,29.93,North,360,2.0,3.0,62,0.00,,,0.00,0,Wunderground v.1.15,2013-03-06 06:39:00,
2013-03-06 01:45:00,39.2,27.3,29.93,North,360,2.0,3.0,62,0.00,,,0.00,0,Wunderground v.1.15,2013-03-06 06:45:00,
2013-03-06 01:53:00,39.2,27.7,29.93,North,360,2.0,2.0,63,0.00,,,0.00,0,Wunderground v.1.15,2013-03-06 06:53:00,
2013-03-06 01:59:00,39.2,27.7,29.93,North,360,2.0,2.0,63,0.00,,,0.00,0,Wunderground v.1.15,2013-03-06 06:59:00,
2013-03-06 02:04:00,39.2,27.7,29.93,North,360,2.0,2.0,63,0.00,,,0.00,0,Wunderground v.1.15,2013-03-06 07:04:00,
2013-03-06 02:10:00,39.1,27.6,29.93,North,360,1.0,2.0,63,0.00,,,0.00,0,Wunderground v.1.15,2013-03-06 07:10:00,
2013-03-06 02:18:00,38.9,27.4,29.92,North,360,1.0,3.0,63,0.00,,,0.00,0,Wunderground v.1.15,2013-03-06 07:18:00,
2013-03-06 02:24:00,38.8,27.7,29.92,North,360,2.0,2.0,64,0.00,,,0.00,0,Wunderground v.1.15,2013-03-06 07:24:00,
2013-03-06 02:30:00,38.8,27.7,29.92,North,360,2.0,2.0,64,0.00,,,0.00,0,Wunderground v.1.15,2013-03-06 07:30:00,
2013-03-06 02:36:00,38.8,28.0,29.92,North,360,3.0,4.0,65,0.00,,,0.00,0,Wunderground v.1.15,2013-03-06 07:36:00,
2013-03-06 02:44:00,38.8,28.0,29.92,North,360,3.0,3.0,65,0.00,,,0.00,0,Wunderground v.1.15,2013-03-06 07:44:00,
2013-03-06 02:49:00,38.6,28.2,29.91,North,360,3.0,6.0,66,0.00,,,0.00,0,Wunderground v.1.15,2013-03-06 07:49:00,
2013-03-06 02:56:00,38.5,28.1,29.91,North,360,3.0,3.0,66,0.00,,,0.00,0,Wunderground v.1.15,2013-03-06 07:56:00,
2013-03-06 03:01:00,38.5,28.5,29.90,North,360,2.0,2.0,67,0.00,,,0.00,0,Wunderground v.1.15,2013-03-06 08:01:00,
2013-03-06 03:08:00,38.3,28.3,29.90,North,360,2.0,5.0,67,0.00,,,0.00,0,Wunderground v.1.15,2013-03-06 08:08:00,
2013-03-06 03:13:00,38.2,28.6,29.90,NNE,15,3.0,3.0,68,0.00,,,0.00,0,Wunderground v.1.15,2013-03-06 08:13:00,
2013-03-06 03:19:00,38.2,28.9,29.89,North,360,3.0,5.0,69,0.00,,,0.00,0,Wunderground v.1.15,2013-03-06 08:19:00,
2013-03-06 03:26:00,38.0,28.7,29.89,North,360,3.0,5.0,69,0.00,,,0.00,0,Wunderground v.1.15,2013-03-06 08:26:00,
2013-03-06 03:33:00,38.0,29.1,29.89,North,360,2.0,7.0,70,0.00,,,0.00,0,Wunderground v.1.15,2013-03-06 08:33:00,
2013-03-06 03:39:00,38.0,29.1,29.89,North,360,3.0,7.0,70,0.00,,,0.00,0,Wunderground v.1.15,2013-03-06 08:39:00,
2013-03-06 03:47:00,38.0,29.4,29.88,North,360,3.0,4.0,71,0.00,,,0.00,0,Wunderground v.1.15,2013-03-06 08:47:00,
2013-03-06 03:53:00,38.0,29.4,29.88,North,360,3.0,3.0,71,0.00,,,0.00,0,Wunderground v.1.15,2013-03-06 08:53:00,
2013-03-06 03:59:00,38.0,29.4,29.88,North,360,3.0,7.0,71,0.00,,,0.00,0,Wunderground v.1.15,2013-03-06 08:59:00,
2013-03-06 04:07:00,38.0,29.8,29.88,North,360,4.0,5.0,72,0.00,,,0.00,0,Wunderground v.1.15,2013-03-06 09:07:00,
2013-03-06 04:13:00,38.0,29.8,29.88,North,360,4.0,4.0,72,0.00,,,0.00,0,Wunderground v.1.15,2013-03-06 09:13:00,
2013-03-06 04:19:00,38.2,30.0,29.88,North,360,4.0,4.0,72,0.00,,,0.00,0,Wunderground v.1.15,2013-03-06 09:19:00,
2013-03-06 04:25:00,38.3,30.4,29.88,North,360,4.0,9.0,73,0.00,,,0.00,0,Wunderground v.1.15,2013-03-06 09:25:00,
2013-03-06 04:33:00,38.5,30.9,29.88,NNE,17,6.0,6.0,74,0.00,,,0.00,0,Wunderground v.1.15,2013-03-06 09:33:00,
2013-03-06 04:39:00,38.6,31.0,29.88,North,11,6.0,7.0,74,0.00,,,0.00,0,Wunderground v.1.15,2013-03-06 09:39:00,
2013-03-06 04:45:00,38.6,31.0,29.89,NNE,15,5.0,8.0,74,0.00,,,0.00,0,Wunderground v.1.15,2013-03-06 09:45:00,
2013-03-06 04:53:00,38.8,31.2,29.89,NNE,16,6.0,6.0,74,0.00,,,0.00,0,Wunderground v.1.15,2013-03-06 09:53:00,
2013-03-06 04:59:00,38.9,31.6,29.89,North,360,6.0,6.0,75,0.00,,,0.00,0,Wunderground v.1.15,2013-03-06 09:59:00,
2013-03-06 05:04:00,38.9,31.6,29.89,North,360,6.0,6.0,75,0.00,,,0.00,0,Wunderground v.1.15,2013-03-06 10:04:00,
2013-03-06 05:10:00,39.1,31.8,29.89,North,360,7.0,13.0,75,0.00,,,0.00,0,Wunderground v.1.15,2013-03-06 10:10:00,
2013-03-06 05:16:00,39.1,31.8,29.89,North,360,7.0,13.0,75,0.00,,,0.00,0,Wunderground v.1.15,2013-03-06 10:16:00,
2013-03-06 05:24:00,39.1,31.8,29.89,North,11,6.0,6.0,75,0.00,,,0.00,0,Wunderground v.1.15,2013-03-06 10:24:00,
2013-03-06 05:30:00,39.1,31.8,29.88,North,11,6.0,6.0,75,0.00,,,0.00,0,Wunderground v.1.15,2013-03-06 10:30:00,
2013-03-06 05:36:00,39.1,31.5,29.88,North,360,7.0,10.0,74,0.00,,,0.00,0,Wunderground v.1.15,2013-03-06 10:36:00,
2013-03-06 05:44:00,39.1,31.5,29.88,North,11,7.0,7.0,74,0.00,,,0.00,0,Wunderground v.1.15,2013-03-06 10:44:00,
2013-03-06 05:49:00,39.1,31.5,29.88,NNE,12,7.0,8.0,74,0.00,,,0.00,0,Wunderground v.1.15,2013-03-06 10:49:00,
2013-03-06 05:57:00,39.1,31.8,29.88,North,360,7.0,12.0,75,0.00,,,0.00,0,Wunderground v.1.15,2013-03-06 10:57:00,
2013-03-06 06:03:00,39.1,31.8,29.88,North,360,7.0,17.0,75,0.00,,,0.00,0,Wunderground v.1.15,2013-03-06 11:03:00,
2013-03-06 06:09:00,39.1,32.2,29.88,NNE,12,7.0,17.0,76,0.00,,,0.00,0,Wunderground v.1.15,2013-03-06 11:09:00,
2013-03-06 06:16:00,39.1,32.5,29.88,North,360,8.0,13.0,77,0.00,,,0.00,0,Wunderground v.1.15,2013-03-06 11:16:00,
2013-03-06 06:21:00,39.1,32.5,29.88,North,360,8.0,13.0,77,0.00,,,0.00,0,Wunderground v.1.15,2013-03-06 11:21:00,
2013-03-06 06:27:00,39.2,32.3,29.88,North,360,8.0,12.0,76,0.00,,,0.00,0,Wunderground v.1.15,2013-03-06 11:27:00,
2013-03-06 06:33:00,39.3,32.0,29.88,North,360,7.0,8.0,75,0.00,,,0.00,0,Wunderground v.1.15,2013-03-06 11:33:00,
2013-03-06 06:39:00,39.3,32.0,29.88,North,360,7.0,9.0,75,0.00,,,0.00,5,Wunderground v.1.15,2013-03-06 11:39:00,
2013-03-06 06:47:00,39.5,31.9,29.88,North,360,6.0,7.0,74,0.00,,,0.00,9,Wunderground v.1.15,2013-03-06 11:47:00,
2013-03-06 06:53:00,39.6,32.0,29.88,NNE,13,6.0,17.0,74,0.00,,,0.00,11,Wunderground v.1.15,2013-03-06 11:53:00,
2013-03-06 06:59:00,39.6,32.0,29.88,North,360,7.0,17.0,74,0.00,,,0.00,9,Wunderground v.1.15,2013-03-06 11:59:00,
2013-03-06 07:06:00,39.6,32.0,29.87,North,360,8.0,11.0,74,0.00,,,0.00,12,Wunderground v.1.15,2013-03-06 12:06:00,
2013-03-06 07:13:00,39.8,31.8,29.87,North,360,8.0,8.0,73,0.00,,,0.00,11,Wunderground v.1.15,2013-03-06 12:13:00,
2013-03-06 07:19:00,39.8,31.8,29.87,North,360,8.0,13.0,73,0.00,,,0.00,14,Wunderground v.1.15,2013-03-06 12:19:00,
2013-03-06 07:27:00,39.8,31.5,29.87,North,360,8.0,12.0,72,0.00,,,0.00,18,Wunderground v.1.15,2013-03-06 12:27:00,
2013-03-06 07:33:00,39.8,31.5,29.87,North,360,8.0,10.0,72,0.00,,,0.00,18,Wunderground v.1.15,2013-03-06 12:33:00,
2013-03-06 07:38:00,39.8,31.5,29.87,North,360,8.0,14.0,72,0.00,,,0.00,21,Wunderground v.1.15,2013-03-06 12:38:00,
2013-03-06 07:46:00,39.8,31.5,29.87,North,360,8.0,8.0,72,0.00,,,0.00,33,Wunderground v.1.15,2013-03-06 12:46:00,
2013-03-06 07:53:00,39.8,31.8,29.87,NNE,14,6.0,14.0,73,0.00,,,0.00,26,Wunderground v.1.15,2013-03-06 12:53:00,
2013-03-06 07:59:00,39.6,31.7,29.87,North,360,8.0,14.0,73,0.00,,,0.00,47,Wunderground v.1.15,2013-03-06 12:59:00,
2013-03-06 08:04:00,39.6,31.7,29.87,North,360,8.0,12.0,73,0.00,,,0.00,33,Wunderground v.1.15,2013-03-06 13:04:00,
2013-03-06 08:10:00,39.6,31.3,29.87,North,360,11.0,16.0,72,0.00,,,0.00,32,Wunderground v.1.15,2013-03-06 13:10:00,
2013-03-06 08:16:00,39.8,31.5,29.88,North,360,8.0,10.0,72,0.00,,,0.00,37,Wunderground v.1.15,2013-03-06 13:16:00,
2013-03-06 08:22:00,39.9,31.3,29.88,North,360,7.0,17.0,71,0.00,,,0.00,39,Wunderground v.1.15,2013-03-06 13:22:00,
2013-03-06 08:28:00,39.9,31.3,29.88,North,360,9.0,14.0,71,0.00,,,0.00,56,Wunderground v.1.15,2013-03-06 13:28:00,
2013-03-06 08:34:00,40.1,31.4,29.88,North,360,9.0,9.0,71,0.00,,,0.00,65,Wunderground v.1.15,2013-03-06 13:34:00,
2013-03-06 08:40:00,40.2,31.5,29.88,North,5,7.0,10.0,71,0.00,,,0.00,93,Wunderground v.1.15,2013-03-06 13:40:00,
2013-03-06 08:46:00,40.2,31.2,29.89,North,5,8.0,8.0,70,0.00,,,0.00,90,Wunderground v.1.15,2013-03-06 13:46:00,
2013-03-06 08:53:00,40.3,31.3,29.89,North,10,8.0,8.0,70,0.00,,,0.00,88,Wunderground v.1.15,2013-03-06 13:53:00,
2013-03-06 08:59:00,40.5,31.1,29.89,NNE,15,8.0,9.0,69,0.00,,,0.00,60,Wunderground v.1.15,2013-03-06 13:59:00,
2013-03-06 09:07:00,40.5,31.1,29.88,North,360,8.0,10.0,69,0.00,,,0.00,65,Wunderground v.1.15,2013-03-06 14:07:00,
2013-03-06 09:13:00,40.6,31.6,29.88,North,360,10.0,15.0,70,0.00,,,0.00,74,Wunderground v.1.15,2013-03-06 14:13:00,
2013-03-06 09:19:00,40.6,31.6,29.88,North,360,11.0,15.0,70,0.00,,,0.00,54,Wunderground v.1.15,2013-03-06 14:19:00,
2013-03-06 09:25:00,40.6,31.6,29.88,North,360,10.0,14.0,70,0.00,,,0.00,70,Wunderground v.1.15,2013-03-06 14:25:00,
2013-03-06 09:39:00,40.8,31.8,29.87,North,10,8.0,16.0,70,0.00,,,0.00,62,Wunderground v.1.15,2013-03-06 14:39:00,
2013-03-06 09:49:00,40.8,32.1,29.87,North,360,9.0,9.0,71,0.00,,,0.00,49,Wunderground v.1.15,2013-03-06 14:49:00,
2013-03-06 10:00:00,40.8,32.5,29.87,North,360,10.0,15.0,72,0.00,,,0.00,81,Wunderground v.1.15,2013-03-06 15:00:00,
2013-03-06 10:11:00,40.8,32.5,29.87,North,360,10.0,19.0,72,0.00,,,0.00,88,Wunderground v.1.15,2013-03-06 15:11:00,
2013-03-06 10:20:00,40.9,32.6,29.87,North,360,12.0,25.0,72,0.00,,,0.00,90,Wunderground v.1.15,2013-03-06 15:20:00,
2013-03-06 10:32:00,41.1,32.4,29.87,North,9,11.0,14.0,71,0.00,,,0.00,113,Wunderground v.1.15,2013-03-06 15:32:00,
2013-03-06 10:42:00,41.3,32.2,29.87,North,360,10.0,10.0,70,0.00,,,0.00,123,Wunderground v.1.15,2013-03-06 15:42:00,
2013-03-06 10:51:00,41.3,32.2,29.87,North,360,12.0,12.0,70,0.00,,,0.00,109,Wunderground v.1.15,2013-03-06 15:51:00,
2013-03-06 11:01:00,41.3,32.6,29.86,North,360,12.0,15.0,71,0.00,,,0.00,186,Wunderground v.1.15,2013-03-06 16:01:00,
2013-03-06 11:08:00,41.5,32.4,29.86,North,360,13.0,27.0,70,0.00,,,0.00,288,Wunderground v.1.15,2013-03-06 16:08:00,
2013-03-06 11:18:00,41.8,32.4,29.85,North,360,15.0,15.0,69,0.00,,,0.00,227,Wunderground v.1.15,2013-03-06 16:18:00,
2013-03-06 11:28:00,42.1,32.7,29.85,North,360,12.0,13.0,69,0.00,,,0.00,193,Wunderground v.1.15,2013-03-06 16:28:00,
2013-03-06 11:38:00,42.2,32.4,29.85,North,360,12.0,12.0,68,0.00,,,0.00,288,Wunderground v.1.15,2013-03-06 16:38:00,
2013-03-06 11:47:00,42.5,32.3,29.84,North,360,11.0,15.0,67,0.00,,,0.00,183,Wunderground v.1.15,2013-03-06 16:47:00,
2013-03-06 12:00:00,42.8,31.5,29.85,North,360,14.0,14.0,64,0.00,,,0.00,171,Wunderground v.1.15,2013-03-06 17:00:00,
2013-03-06 12:05:00,42.8,31.5,29.85,North,10,14.0,14.0,64,0.00,,,0.00,174,Wunderground v.1.15,2013-03-06 17:05:00,
2013-03-06 12:19:00,43.1,31.4,29.84,North,9,10.0,10.0,63,0.00,,,0.00,515,Wunderground v.1.15,2013-03-06 17:19:00,
2013-03-06 12:29:00,43.8,31.6,29.84,North,360,14.0,14.0,62,0.00,,,0.00,364,Wunderground v.1.15,2013-03-06 17:29:00,
2013-03-06 12:40:00,44.1,31.1,29.84,North,360,11.0,11.0,60,0.00,,,0.00,72,Wunderground v.1.15,2013-03-06 17:40:00,
2013-03-06 12:47:00,43.5,31.3,29.84,North,360,12.0,21.0,62,0.00,,,0.00,102,Wunderground v.1.15,2013-03-06 17:47:00,
2013-03-06 12:53:00,43.3,31.1,29.84,North,360,12.0,12.0,62,0.00,,,0.00,253,Wunderground v.1.15,2013-03-06 17:53:00,
2013-03-06 12:58:00,43.5,30.5,29.84,North,360,11.0,17.0,60,0.00,,,0.00,91,Wunderground v.1.15,2013-03-06 17:58:00,
2013-03-06 13:04:00,43.2,31.4,29.84,North,360,12.0,12.0,63,0.00,,,0.00,91,Wunderground v.1.15,2013-03-06 18:04:00,
2013-03-06 13:10:00,42.2,32.8,29.84,North,360,13.0,26.0,69,0.00,,,0.00,121,Wunderground v.1.15,2013-03-06 18:10:00,
2013-03-06 13:18:00,41.5,33.1,29.84,North,5,9.0,11.0,72,0.00,,,0.00,237,Wunderground v.1.15,2013-03-06 18:18:00,
2013-03-06 13:24:00,41.5,33.5,29.84,North,360,7.0,7.0,73,0.00,,,0.00,137,Wunderground v.1.15,2013-03-06 18:24:00,
2013-03-06 13:30:00,41.6,33.6,29.84,North,360,6.0,7.0,73,0.00,,,0.00,104,Wunderground v.1.15,2013-03-06 18:30:00,
2013-03-06 13:36:00,41.6,33.2,29.84,North,360,7.0,15.0,72,0.00,,,0.00,95,Wunderground v.1.15,2013-03-06 18:36:00,
2013-03-06 13:41:00,41.5,33.5,29.84,North,360,9.0,15.0,73,0.00,,,0.00,86,Wunderground v.1.15,2013-03-06 18:41:00,
2013-03-06 13:48:00,41.1,34.4,29.84,North,360,8.0,13.0,77,0.00,,,0.00,258,Wunderground v.1.15,2013-03-06 18:48:00,
2013-03-06 13:53:00,40.8,35.1,29.84,North,360,7.0,12.0,80,0.00,,,0.01,113,Wunderground v.1.15,2013-03-06 18:53:00,
2013-03-06 13:59:00,40.3,34.9,29.84,North,360,10.0,13.0,81,0.00,,,0.01,185,Wunderground v.1.15,2013-03-06 18:59:00,
2013-03-06 14:06:00,40.2,35.4,29.84,North,360,7.0,8.0,83,0.00,,,0.01,107,Wunderground v.1.15,2013-03-06 19:06:00,
2013-03-06 14:11:00,40.2,35.4,29.84,North,360,6.0,9.0,83,0.00,,,0.01,105,Wunderground v.1.15,2013-03-06 19:11:00,
2013-03-06 14:17:00,40.1,35.4,29.84,North,360,6.0,9.0,83,0.00,,,0.01,111,Wunderground v.1.15,2013-03-06 19:17:00,
2013-03-06 14:23:00,39.9,35.2,29.84,North,360,8.0,8.0,83,0.00,,,0.01,63,Wunderground v.1.15,2013-03-06 19:23:00,
2013-03-06 14:29:00,40.1,35.4,29.84,North,11,7.0,9.0,83,0.00,,,0.01,123,Wunderground v.1.15,2013-03-06 19:29:00,
2013-03-06 14:37:00,40.3,35.2,29.84,North,360,6.0,6.0,82,0.00,,,0.01,40,Wunderground v.1.15,2013-03-06 19:37:00,
2013-03-06 14:43:00,40.3,34.9,29.84,North,9,6.0,6.0,81,0.00,,,0.01,84,Wunderground v.1.15,2013-03-06 19:43:00,
2013-03-06 14:49:00,40.3,34.6,29.84,North,360,7.0,8.0,80,0.00,,,0.01,95,Wunderground v.1.15,2013-03-06 19:49:00,
2013-03-06 14:57:00,40.5,34.2,29.84,North,360,6.0,11.0,78,0.00,,,0.01,40,Wunderground v.1.15,2013-03-06 19:57:00,
2013-03-06 15:03:00,40.3,33.7,29.84,North,360,7.0,10.0,77,0.00,,,0.01,53,Wunderground v.1.15,2013-03-06 20:03:00,
2013-03-06 15:09:00,40.1,33.5,29.84,North,360,7.0,10.0,77,0.00,,,0.01,62,Wunderground v.1.15,2013-03-06 20:09:00,
2013-03-06 15:17:00,39.9,32.6,29.84,North,360,7.0,9.0,75,0.00,,,0.01,76,Wunderground v.1.15,2013-03-06 20:17:00,
2013-03-06 15:23:00,40.1,32.1,29.84,North,360,7.0,7.0,73,0.00,,,0.01,83,Wunderground v.1.15,2013-03-06 20:23:00,
2013-03-06 15:29:00,40.2,31.9,29.84,North,360,8.0,8.0,72,0.00,,,0.02,86,Wunderground v.1.15,2013-03-06 20:29:00,
2013-03-06 15:35:00,40.5,31.1,29.83,North,360,7.0,11.0,69,0.00,,,0.02,54,Wunderground v.1.15,2013-03-06 20:35:00,
2013-03-06 15:40:00,40.8,30.7,29.83,North,360,8.0,11.0,67,0.00,,,0.02,47,Wunderground v.1.15,2013-03-06 20:40:00,
2013-03-06 15:47:00,40.9,29.7,29.84,North,360,8.0,13.0,64,0.00,,,0.02,37,Wunderground v.1.15,2013-03-06 20:47:00,
2013-03-06 15:53:00,41.1,29.8,29.84,North,360,8.0,10.0,64,0.00,,,0.02,35,Wunderground v.1.15,2013-03-06 20:53:00,
2013-03-06 15:58:00,41.1,29.5,29.84,North,360,7.0,10.0,63,0.00,,,0.02,28,Wunderground v.1.15,2013-03-06 20:58:00,
2013-03-06 16:04:00,41.2,29.5,29.84,North,360,6.0,6.0,63,0.00,,,0.02,23,Wunderground v.1.15,2013-03-06 21:04:00,
2013-03-06 16:10:00,41.2,28.8,29.84,North,360,7.0,13.0,61,0.00,,,0.02,21,Wunderground v.1.15,2013-03-06 21:10:00,
2013-03-06 16:16:00,41.2,28.8,29.85,NNE,15,7.0,10.0,61,0.00,,,0.02,18,Wunderground v.1.15,2013-03-06 21:16:00,
2013-03-06 16:21:00,41.3,28.4,29.85,North,360,7.0,10.0,60,0.00,,,0.02,18,Wunderground v.1.15,2013-03-06 21:21:00,
2013-03-06 16:28:00,41.3,28.4,29.85,North,360,6.0,7.0,60,0.00,,,0.02,19,Wunderground v.1.15,2013-03-06 21:28:00,
2013-03-06 16:33:00,41.3,28.4,29.85,NNE,15,6.0,7.0,60,0.00,,,0.02,14,Wunderground v.1.15,2013-03-06 21:33:00,
2013-03-06 16:40:00,41.3,28.0,29.85,North,360,7.0,10.0,59,0.00,,,0.02,16,Wunderground v.1.15,2013-03-06 21:40:00,
2013-03-06 16:46:00,41.5,27.0,29.85,North,360,7.0,15.0,56,0.00,,,0.02,16,Wunderground v.1.15,2013-03-06 21:46:00,
2013-03-06 16:53:00,41.5,27.8,29.85,North,360,8.0,8.0,58,0.00,,,0.02,12,Wunderground v.1.15,2013-03-06 21:53:00,
2013-03-06 16:59:00,41.6,27.9,29.85,North,360,8.0,10.0,58,0.00,,,0.02,11,Wunderground v.1.15,2013-03-06 21:59:00,
2013-03-06 17:07:00,41.6,27.9,29.86,North,360,7.0,8.0,58,0.00,,,0.02,9,Wunderground v.1.15,2013-03-06 22:07:00,
2013-03-06 17:13:00,41.8,27.7,29.86,North,360,7.0,12.0,57,0.00,,,0.02,5,Wunderground v.1.15,2013-03-06 22:13:00,
2013-03-06 17:19:00,41.8,28.1,29.87,North,360,8.0,12.0,58,0.00,,,0.02,5,Wunderground v.1.15,2013-03-06 22:19:00,
2013-03-06 17:26:00,41.8,28.1,29.87,North,360,9.0,9.0,58,0.00,,,0.02,0,Wunderground v.1.15,2013-03-06 22:26:00,
2013-03-06 17:31:00,41.8,28.1,29.87,North,360,9.0,9.0,58,0.00,,,0.02,0,Wunderground v.1.15,2013-03-06 22:31:00,
2013-03-06 17:37:00,41.8,28.1,29.87,North,360,9.0,12.0,58,0.00,,,0.02,0,Wunderground v.1.15,2013-03-06 22:37:00,
2013-03-06 17:43:00,41.8,28.1,29.87,North,360,9.0,9.0,58,0.00,,,0.02,0,Wunderground v.1.15,2013-03-06 22:43:00,
2013-03-06 17:49:00,41.8,28.1,29.87,North,360,9.0,9.0,58,0.00,,,0.02,0,Wunderground v.1.15,2013-03-06 22:49:00,
2013-03-06 17:56:00,41.8,28.1,29.87,North,360,9.0,12.0,58,0.00,,,0.02,0,Wunderground v.1.15,2013-03-06 22:56:00,
2013-03-06 18:03:00,41.8,27.7,29.87,North,360,10.0,10.0,57,0.00,,,0.02,0,Wunderground v.1.15,2013-03-06 23:03:00,
2013-03-06 18:09:00,41.8,27.7,29.87,North,360,8.0,10.0,57,0.00,,,0.02,0,Wunderground v.1.15,2013-03-06 23:09:00,
2013-03-06 18:17:00,41.8,27.7,29.88,NNE,13,8.0,10.0,57,0.00,,,0.02,0,Wunderground v.1.15,2013-03-06 23:17:00,
2013-03-06 18:23:00,41.6,27.5,29.88,North,360,10.0,10.0,57,0.00,,,0.02,0,Wunderground v.1.15,2013-03-06 23:23:00,
2013-03-06 18:29:00,41.6,27.9,29.88,North,360,10.0,15.0,58,0.00,,,0.02,0,Wunderground v.1.15,2013-03-06 23:29:00,
2013-03-06 18:36:00,41.5,27.8,29.89,North,360,9.0,14.0,58,0.00,,,0.02,0,Wunderground v.1.15,2013-03-06 23:36:00,
2013-03-06 18:43:00,41.3,27.6,29.89,North,360,10.0,19.0,58,0.00,,,0.02,0,Wunderground v.1.15,2013-03-06 23:43:00,
2013-03-06 18:48:00,41.2,27.9,29.89,North,360,9.0,10.0,59,0.00,,,0.02,0,Wunderground v.1.15,2013-03-06 23:48:00,
2013-03-06 18:58:00,41.1,28.3,29.89,North,360,9.0,14.0,60,0.00,,,0.02,0,Wunderground v.1.15,2013-03-06 23:58:00,
2013-03-06 19:04:00,40.9,26.8,29.90,North,360,11.0,15.0,57,0.00,,,0.02,0,Wunderground v.1.15,2013-03-07 00:04:00,
2013-03-06 19:10:00,40.6,27.8,29.90,North,360,11.0,21.0,60,0.00,,,0.02,0,Wunderground v.1.15,2013-03-07 00:10:00,
2013-03-06 19:18:00,40.5,28.1,29.90,North,360,11.0,16.0,61,0.00,,,0.02,0,Wunderground v.1.15,2013-03-07 00:18:00,
2013-03-06 19:24:00,40.3,27.9,29.90,North,360,11.0,21.0,61,0.00,,,0.02,0,Wunderground v.1.15,2013-03-07 00:24:00,
2013-03-06 19:31:00,40.3,28.3,29.90,North,360,10.0,21.0,62,0.00,,,0.02,0,Wunderground v.1.15,2013-03-07 00:31:00,
2013-03-06 19:37:00,40.2,27.8,29.90,North,360,9.0,21.0,61,0.00,,,0.02,0,Wunderground v.1.15,2013-03-07 00:37:00,
2013-03-06 19:43:00,40.2,27.4,29.90,North,360,11.0,12.0,60,0.00,,,0.02,0,Wunderground v.1.15,2013-03-07 00:43:00,
2013-03-06 19:48:00,40.1,27.7,29.91,North,360,10.0,17.0,61,0.00,,,0.02,0,Wunderground v.1.15,2013-03-07 00:48:00,
2013-03-06 19:57:00,39.9,27.1,29.91,North,360,11.0,19.0,60,0.00,,,0.02,0,Wunderground v.1.15,2013-03-07 00:57:00,
2013-03-06 20:02:00,39.9,27.1,29.91,North,360,12.0,19.0,60,0.00,,,0.02,0,Wunderground v.1.15,2013-03-07 01:02:00,
2013-03-06 20:08:00,39.9,27.1,29.91,North,360,11.0,19.0,60,0.00,,,0.02,0,Wunderground v.1.15,2013-03-07 01:08:00,
2013-03-06 20:15:00,39.8,27.4,29.92,North,360,9.0,15.0,61,0.00,,,0.02,0,Wunderground v.1.15,2013-03-07 01:15:00,
2013-03-06 20:20:00,39.6,28.0,29.92,North,360,10.0,18.0,63,0.00,,,0.02,0,Wunderground v.1.15,2013-03-07 01:20:00,
2013-03-06 20:26:00,39.1,28.7,29.92,North,360,10.0,10.0,66,0.00,,,0.02,0,Wunderground v.1.15,2013-03-07 01:26:00,
2013-03-06 20:32:00,38.6,28.9,29.92,North,360,9.0,12.0,68,0.00,,,0.02,0,Wunderground v.1.15,2013-03-07 01:32:00,
2013-03-06 20:38:00,38.3,29.4,29.92,North,360,9.0,12.0,70,0.00,,,0.02,0,Wunderground v.1.15,2013-03-07 01:38:00,
2013-03-06 20:46:00,37.9,29.7,29.92,North,360,8.0,9.0,72,0.00,,,0.02,0,Wunderground v.1.15,2013-03-07 01:46:00,
2013-03-06 20:52:00,37.8,29.9,29.92,North,360,9.0,9.0,73,0.00,,,0.02,0,Wunderground v.1.15,2013-03-07 01:52:00,
2013-03-06 20:58:00,37.6,29.7,29.92,North,360,9.0,13.0,73,0.00,,,0.02,0,Wunderground v.1.15,2013-03-07 01:58:00,
2013-03-06 21:06:00,37.6,29.7,29.92,North,360,9.0,9.0,73,0.00,,,0.02,0,Wunderground v.1.15,2013-03-07 02:06:00,
2013-03-06 21:12:00,37.6,29.7,29.92,NNE,17,7.0,7.0,73,0.00,,,0.02,0,Wunderground v.1.15,2013-03-07 02:12:00,
2013-03-06 21:18:00,37.8,29.6,29.92,North,360,7.0,10.0,72,0.00,,,0.02,0,Wunderground v.1.15,2013-03-07 02:18:00,
2013-03-06 21:24:00,37.9,29.0,29.92,North,360,8.0,14.0,70,0.00,,,0.02,0,Wunderground v.1.15,2013-03-07 02:24:00,
2013-03-06 21:32:00,38.2,28.2,29.92,North,360,10.0,10.0,67,0.00,,,0.02,0,Wunderground v.1.15,2013-03-07 02:32:00,
2013-03-06 21:37:00,38.3,27.9,29.92,North,360,10.0,10.0,66,0.00,,,0.02,0,Wunderground v.1.15,2013-03-07 02:37:00,
2013-03-06 21:44:00,38.6,27.8,29.92,North,360,9.0,10.0,65,0.00,,,0.02,0,Wunderground v.1.15,2013-03-07 02:44:00,
2013-03-06 21:51:00,38.6,27.5,29.91,North,360,7.0,8.0,64,0.00,,,0.02,0,Wunderground v.1.15,2013-03-07 02:51:00,
2013-03-06 21:57:00,38.8,27.3,29.91,North,360,7.0,11.0,63,0.00,,,0.02,0,Wunderground v.1.15,2013-03-07 02:57:00,
2013-03-06 22:04:00,38.8,27.3,29.91,North,360,8.0,9.0,63,0.00,,,0.02,0,Wunderground v.1.15,2013-03-07 03:04:00,
2013-03-06 22:09:00,38.8,26.9,29.91,North,360,8.0,8.0,62,0.00,,,0.02,0,Wunderground v.1.15,2013-03-07 03:09:00,
2013-03-06 22:15:00,38.8,26.9,29.91,North,360,8.0,8.0,62,0.00,,,0.02,0,Wunderground v.1.15,2013-03-07 03:15:00,
2013-03-06 22:21:00,38.8,26.9,29.91,North,360,9.0,9.0,62,0.00,,,0.02,0,Wunderground v.1.15,2013-03-07 03:21:00,
2013-03-06 22:27:00,38.8,26.9,29.91,North,360,7.0,11.0,62,0.00,,,0.02,0,Wunderground v.1.15,2013-03-07 03:27:00,
2013-03-06 22:35:00,38.8,26.5,29.92,North,360,8.0,9.0,61,0.00,,,0.02,0,Wunderground v.1.15,2013-03-07 03:35:00,
2013-03-06 22:41:00,38.8,26.5,29.92,North,360,8.0,10.0,61,0.00,,,0.02,0,Wunderground v.1.15,2013-03-07 03:41:00,
2013-03-06 22:47:00,38.8,26.1,29.92,North,360,8.0,10.0,60,0.00,,,0.02,0,Wunderground v.1.15,2013-03-07 03:47:00,
2013-03-06 22:53:00,38.9,26.2,29.92,North,360,8.0,13.0,60,0.00,,,0.02,0,Wunderground v.1.15,2013-03-07 03:53:00,
2013-03-06 23:01:00,38.9,26.2,29.92,North,360,7.0,7.0,60,0.00,,,0.02,0,Wunderground v.1.15,2013-03-07 04:01:00,
2013-03-06 23:06:00,38.9,26.2,29.92,North,360,7.0,8.0,60,0.00,,,0.02,0,Wunderground v.1.15,2013-03-07 04:06:00,
2013-03-06 23:14:00,38.9,25.8,29.92,North,360,7.0,7.0,59,0.00,,,0.02,0,Wunderground v.1.15,2013-03-07 04:14:00,
2013-03-06 23:21:00,38.9,26.2,29.92,North,360,7.0,9.0,60,0.00,,,0.02,0,Wunderground v.1.15,2013-03-07 04:21:00,
2013-03-06 23:26:00,39.1,26.0,29.92,North,360,9.0,14.0,59,0.00,,,0.02,0,Wunderground v.1.15,2013-03-07 04:26:00,
2013-03-06 23:34:00,38.9,25.8,29.92,North,360,7.0,8.0,59,0.00,,,0.02,0,Wunderground v.1.15,2013-03-07 04:34:00,
2013-03-06 23:40:00,38.9,25.8,29.92,North,360,7.0,8.0,59,0.00,,,0.02,0,Wunderground v.1.15,2013-03-07 04:40:00,
2013-03-06 23:46:00,38.9,25.8,29.92,North,360,7.0,8.0,59,0.00,,,0.02,0,Wunderground v.1.15,2013-03-07 04:46:00,
2013-03-06 23:54:00,38.9,25.8,29.92,North,360,8.0,12.0,59,0.00,,,0.02,0,Wunderground v.1.15,2013-03-07 04:54:00,